Location: Napa Junction
(38.1874°N, 122.2508°W)
Time: 16:15:37
(UTC+00:00)

Cosmos 1763 Rocket - Pass Details

Date: 08 September 2024
Orbit: 730 x 776 km, 74.0° (Epoch: 07 October)

Event Time Altitude Azimuth Distance (km) Brightness Sun altitude
Rises 12:17:11 0° 343° (NNW) 3,183 6.8 -17.5°
Reaches altitude 10° 12:19:33 10° 345° (NNW) 2,263 6.0 -17.1°
Maximum altitude 12:24:40 74° 71° (ENE) 784 3.7 -16.2°
Drops below altitude 10° 12:29:50 10° 156° (SSE) 2,279 6.0 -15.2°
Sets 12:32:13 0° 159° (SSE) 3,208 6.8 -14.8°
